DW9615 Home Hill AU current weather conditions

sailwx.info

Wind from 071 at 4 knots gusting 10

Air temperature 24.4° C
Dewpoint 11.7° C

Last reported at 2016-Jul-02 04:48 UTC.
Time now 2016-Jul-02 05:45 UTC

Location: S 19°40' E 147°25'.
View on Google Maps.

See reports from other nearby stations

  
Tides and Currents Weather Stations Pressure Air Temp Water Temp Dewpoint Dewpoint Depression Visibility Wind Speed Wind Dir Waves Ship Positions
date/time (UTC)wind fromknots sea level pressurealtimeterstation pressurevisibilityair tempwater tempwave heightnotes
2016-Jul-02 04:48 071 4 gusting 10 24.4
2016-Jul-02 04:33 096 5 gusting 8 24.4
2016-Jul-02 04:18 082 5 gusting 13 24.4
2016-Jul-02 04:03 111 3 gusting 11 24.4
2016-Jul-02 03:48 105 5 gusting 9 25.0
2016-Jul-02 03:33 050 6 gusting 12 25.0
2016-Jul-02 03:18 029 4 gusting 9 24.4
2016-Jul-02 03:03 073 3 gusting 13 24.4
2016-Jul-02 02:48 084 4 gusting 11 24.4
2016-Jul-02 02:33 068 3 gusting 8 24.4
2016-Jul-02 02:18 081 1 gusting 7 24.4
2016-Jul-02 02:03 170 4 gusting 8 24.4
2016-Jul-02 01:48 084 4 gusting 8 24.4
2016-Jul-02 01:33 110 3 gusting 8 23.9
2016-Jul-02 01:18 134 2 gusting 7 23.9
2016-Jul-02 01:03 106 3 gusting 11 23.9
2016-Jul-02 00:48 125 6 gusting 11 23.3
2016-Jul-02 00:33 120 5 gusting 10 23.3
2016-Jul-02 00:18 110 3 gusting 11 23.3
2016-Jul-02 00:03 131 5 gusting 11 22.8
2016-Jul-01 23:48 123 5 gusting 11 22.8
2016-Jul-01 23:32 142 6 gusting 12 22.2
2016-Jul-01 23:17 148 6 gusting 10 21.7
2016-Jul-01 23:02 143 3 gusting 8 21.1
2016-Jul-01 22:47 148 3 gusting 7 20.6
2016-Jul-01 22:32 165 3 gusting 8 20.0
2016-Jul-01 22:17 161 1 gusting 3 18.9
2016-Jul-01 22:02 153 0 gusting 3 18.3
2016-Jul-01 21:47 147 0 gusting 1 17.2
2016-Jul-01 21:32 112 0 gusting 2 16.7
2016-Jul-01 21:17 111 0 gusting 2 16.1
2016-Jul-01 21:02 111 0 gusting 1 15.6
2016-Jul-01 20:47 110 15.6
2016-Jul-01 20:32 110 0 gusting 2 15.6
2016-Jul-01 20:17 110 16.1
2016-Jul-01 20:02 110 16.1
2016-Jul-01 19:47 110 16.1
2016-Jul-01 19:32 110 16.7
2016-Jul-01 19:17 110 0 gusting 2 16.7
2016-Jul-01 19:02 109 16.7
2016-Jul-01 18:47 109 16.7
2016-Jul-01 18:32 109 16.7
2016-Jul-01 18:17 109 16.7
2016-Jul-01 18:02 109 16.7
2016-Jul-01 17:47 109 17.2
2016-Jul-01 17:32 109 17.2
2016-Jul-01 17:17 109 17.2
2016-Jul-01 17:02 109 17.8
2016-Jul-01 16:47 109 17.8
2016-Jul-01 16:32 109 0 gusting 2 17.8
2016-Jul-01 16:17 108 0 gusting 2 17.8
2016-Jul-01 16:01 108 17.8
2016-Jul-01 15:47 108 17.8
2016-Jul-01 15:31 108 0 gusting 2 17.8
2016-Jul-01 15:16 060 17.8
2016-Jul-01 15:01 060 17.8
2016-Jul-01 14:46 060 17.8
2016-Jul-01 14:31 060 18.3
2016-Jul-01 14:16 060 17.8
2016-Jul-01 14:01 060 17.8
2016-Jul-01 13:46 058 17.8
2016-Jul-01 13:31 058 17.8
2016-Jul-01 13:16 058 17.8
2016-Jul-01 13:01 059 17.2
2016-Jul-01 12:46 059 17.2
2016-Jul-01 12:31 054 17.2
2016-Jul-01 12:16 054 17.2
2016-Jul-01 12:01 054 17.2
2016-Jul-01 11:46 054 17.2
2016-Jul-01 11:31 054 17.2
2016-Jul-01 11:16 054 17.2
2016-Jul-01 11:01 054 17.2
2016-Jul-01 10:46 054 17.8
2016-Jul-01 10:31 054 17.8
2016-Jul-01 10:16 054 17.8
2016-Jul-01 10:01 054 18.3
2016-Jul-01 09:46 053 18.3
2016-Jul-01 09:31 052 18.9
2016-Jul-01 09:16 052 19.4
2016-Jul-01 09:01 050 20.6
2016-Jul-01 08:46 050 20.6
2016-Jul-01 08:31 050 21.1
2016-Jul-01 08:16 050 21.7
2016-Jul-01 08:01 049 0 gusting 3 22.2
2016-Jul-01 07:46 039 1 gusting 4 22.2
2016-Jul-01 07:31 046 1 gusting 4 22.8
2016-Jul-01 07:16 054 3 gusting 6 23.3
2016-Jul-01 07:01 059 2 gusting 5 23.9
2016-Jul-01 06:46 060 3 gusting 7 23.9
2016-Jul-01 06:31 033 3 gusting 7 24.4
2016-Jul-01 06:16 043 4 gusting 9 24.4
2016-Jul-01 06:01 069 6 gusting 10 25.0
2016-Jul-01 05:46 050 1 gusting 8 25.0
2016-Jul-01 05:31 062 4 gusting 6 24.4
2016-Jul-01 05:16 080 3 gusting 7 25.0
2016-Jul-01 05:01 046 3 gusting 8 25.6
2016-Jul-01 04:46 062 2 gusting 5 26.7
2016-Jul-01 04:31 070 6 gusting 9 26.7
2016-Jul-01 04:16 023 0 gusting 3 26.1
2016-Jul-01 04:01 080 0 gusting 3 26.1
2016-Jul-01 03:46 112 2 gusting 6 27.2
2016-Jul-01 03:31 225 0 gusting 3 26.7
2016-Jul-01 03:16 175 2 gusting 6 26.1
2016-Jul-01 03:01 107 0 gusting 5 26.7
2016-Jul-01 02:46 131 0 gusting 5 26.1
2016-Jul-01 02:31 073 0 gusting 5 26.1
2016-Jul-01 02:15 149 0 gusting 3 25.6
2016-Jul-01 02:00 107 1 gusting 5 26.1
2016-Jul-01 01:45 127 26.1
2016-Jul-01 01:30 086 0 gusting 4 25.6
2016-Jul-01 01:15 154 1 gusting 5 25.0
2016-Jul-01 01:00 074 1 gusting 5 25.0
2016-Jul-01 00:45 070 1 gusting 5 24.4
2016-Jul-01 00:30 124 0 gusting 6 23.9
2016-Jul-01 00:15 146 0 gusting 2 23.9
2016-Jul-01 00:00 157 2 gusting 4 22.8
2016-Jun-30 23:45 135 1 gusting 3 22.2
2016-Jun-30 23:30 131 0 gusting 4 21.7
2016-Jun-30 23:15 165 1 gusting 3 20.6
2016-Jun-30 23:00 175 19.4
2016-Jun-30 22:45 165 0 gusting 3 18.9
2016-Jun-30 22:30 075 17.8
2016-Jun-30 22:14 072 16.7
2016-Jun-30 22:00 073 15.6
2016-Jun-30 21:45 073 15.0
2016-Jun-30 21:29 073 14.4
2016-Jun-30 21:14 072 13.9
2016-Jun-30 21:00 071 13.9
2016-Jun-30 20:44 071 13.9
2016-Jun-30 20:29 076 13.9
2016-Jun-30 20:14 076 13.9
2016-Jun-30 19:59 076 13.9
2016-Jun-30 19:44 076 13.9
2016-Jun-30 19:29 076 13.9
2016-Jun-30 19:14 076 13.9
2016-Jun-30 18:59 076 13.9
2016-Jun-30 18:44 075 14.4
2016-Jun-30 18:29 075 0 gusting 1 14.4
2016-Jun-30 18:14 075 15.0
2016-Jun-30 17:59 075 15.0
2016-Jun-30 17:44 075 15.0
2016-Jun-30 17:29 075 15.0
2016-Jun-30 17:14 075 15.0
2016-Jun-30 16:59 075 15.0
2016-Jun-30 16:44 075 15.6
2016-Jun-30 16:29 075 15.6
2016-Jun-30 16:14 061 15.6
2016-Jun-30 15:59 060 15.6
2016-Jun-30 15:44 060 15.6
2016-Jun-30 15:29 060 15.6
2016-Jun-30 15:14 060 15.6
2016-Jun-30 14:59 060 16.1
2016-Jun-30 14:44 060 16.1
2016-Jun-30 14:29 060 16.1
2016-Jun-30 14:14 060 16.1
2016-Jun-30 13:59 060 16.1
2016-Jun-30 13:44 060 16.7
2016-Jun-30 13:29 060 16.7
2016-Jun-30 13:14 060 17.2
2016-Jun-30 12:58 060 17.2
2016-Jun-30 12:43 060 17.2
2016-Jun-30 12:28 060 17.8
2016-Jun-30 12:14 060 17.8
2016-Jun-30 11:58 059 17.8
2016-Jun-30 11:44 059 18.3
2016-Jun-30 11:28 059 18.3
2016-Jun-30 11:13 059 18.3
2016-Jun-30 10:58 059 18.9
2016-Jun-30 10:43 058 19.4
2016-Jun-30 10:28 058 20.0
2016-Jun-30 10:13 058 20.6
2016-Jun-30 09:58 053 0 gusting 1 20.6
2016-Jun-30 09:43 052 0 gusting 3 21.1
2016-Jun-30 09:28 048 1 gusting 3 21.7
2016-Jun-30 09:13 057 0 gusting 2 21.7
2016-Jun-30 08:58 060 0 gusting 3 21.7
2016-Jun-30 08:43 054 0 gusting 3 21.7
2016-Jun-30 08:28 054 0 gusting 3 21.7
2016-Jun-30 08:13 050 1 gusting 3 21.7
2016-Jun-30 07:59 076 0 gusting 3 22.2
2016-Jun-30 07:43 080 1 gusting 3 22.2
2016-Jun-30 07:28 064 2 gusting 6 22.8
2016-Jun-30 07:13 071 2 gusting 6 22.8
2016-Jun-30 06:58 072 3 gusting 8 23.3
2016-Jun-30 06:43 087 1 gusting 6 23.3
2016-Jun-30 06:28 060 3 gusting 6 23.9
2016-Jun-30 06:13 069 3 gusting 6 23.9
2016-Jun-30 05:58 052 3 gusting 6 23.9
2016-Jun-30 05:43 062 3 gusting 7 23.9
2016-Jun-30 05:28 091 1 gusting 6 24.4
2016-Jun-30 05:13 049 5 gusting 7 24.4